Wind_Speed
63 61 63 67 62 58 51 48 46 41 34 30 29 29 27 32 22 19 17 13 8 5 6 6 1 8 7 4 17 20 21 29 27 20 18 17 14 9 9 12 13 14 16 18
68 64 69 71 67 64 58 55 52 46 39 36 34 31 30 27 24 22 21 14 8 5 6 7 6 3 2 3 12 17 21 25 30 26 21 18 17 12 9 8 11 12 14 15
70 72 73 71 71 70 66 63 61 55 48 45 39 36 33 30 27 26 24 17 10 9 7 6 7 6 5 4 9 15 20 23 29 31 26 18 18 16 11 7 7 10 11 11
76 75 75 74 73 75 72 72 69 62 55 52 49 43 38 33 31 29 27 22 16 13 9 8 6 10 4 6 11 15 18 21 27 30 27 21 21 19 15 11 6 6 9 9
84 82 81 76 77 78 78 78 75 70 64 60 52 46 41 39 36 33 31 28 22 18 12 10 6 11 6 7 10 13 14 16 23 29 27 27 27 24 20 14 8 5 5 6
91 90 88 82 83 81 84 81 81 78 73 64 62 56 49 44 43 41 39 35 29 23 15 12 10 13 11 7 11 12 15 16 21 25 27 30 29 26 22 16 11 6 3 2
97 95 93 92 89 87 85 86 83 84 81 68 69 65 55 52 50 47 45 41 34 28 20 17 16 12 17 12 10 9 13 21 22 28 27 28 28 27 24 21 15 9 6 2
96 96 97 96 93 93 91 90 88 84 84 75 75 69 59 60 55 52 49 45 39 31 26 25 21 18 16 19 16 14 13 15 25 27 28 27 27 27 24 21 19 14 8 6
98 95 96 95 95 100 94 100 88 89 89 85 82 77 71 67 61 58 54 50 44 38 35 32 27 23 19 21 22 17 16 16 19 23 24 27 28 29 27 24 21 17 13 11
103 101 101 93 101 98 104 98 98 97 91 84 88 83 77 73 67 62 60 55 48 43 41 36 31 28 25 21 22 23 21 21 20 17 19 23 27 29 28 26 24 21 19 16
94 98 103 104 98 99 105 104 106 102 96 89 87 87 80 78 71 66 65 60 54 52 48 43 38 34 27 24 19 27 25 22 25 24 22 23 28 28 27 26 26 25 24 21
88 88 99 98 105 111 111 110 116 110 101 92 91 92 88 82 75 74 71 66 59 56 52 49 43 39 34 30 24 27 30 28 27 28 27 23 24 28 28 28 27 27 26 24
81 84 93 97 104 112 111 106 104 104 104 103 97 92 91 85 79 78 77 71 65 61 57 53 46 41 39 35 31 28 33 34 30 27 27 28 24 25 30 31 30 29 28 26
70 78 87 92 106 116 118 118 120 113 110 107 102 99 98 88 79 80 81 74 69 65 61 55 49 46 44 40 35 30 33 34 30 29 26 27 28 29 29 31 30 29 29 27
71 73 80 88 101 107 113 117 111 114 109 113 108 107 100 93 89 90 92 81 75 68 63 55 49 52 50 46 39 34 33 35 36 31 29 29 29 26 28 29 30 30 31 29
70 74 77 81 94 100 111 115 115 114 112 107 103 103 99 98 95 94 90 83 75 69 63 61 59 56 52 49 45 40 37 37 39 35 33 31 28 27 28 30 32 33 34 33
65 73 76 79 88 94 107 110 116 119 118 115 106 104 108 101 95 93 90 82 77 73 70 65 61 59 56 53 48 45 42 40 39 38 38 37 35 35 34 34 32 35 36 35
59 67 75 79 84 89 87 105 115 121 121 117 112 113 108 109 98 97 96 88 83 79 75 69 65 63 60 57 54 50 45 44 44 44 43 41 37 37 38 35 36 35 36 38
53 61 70 75 78 72 83 101 111 112 114 114 108 104 108 110 103 103 97 92 87 83 78 72 68 66 63 61 60 55 50 48 45 45 44 41 39 40 39 38 37 39 37 37
45 53 59 66 68 65 76 92 97 106 111 116 116 115 113 114 110 101 106 95 87 86 82 75 71 67 67 66 63 59 54 51 51 49 46 41 37 36 41 41 42 38 36 37
33 41 47 55 60 68 71 72 79 96 106 116 116 116 117 115 110 116 105 93 90 88 84 79 75 72 72 70 67 62 57 55 56 51 45 41 36 37 37 38 40 43 41 40
21 29 39 46 53 55 62 62 76 85 94 110 113 118 119 122 119 105 100 98 95 91 86 82 78 75 75 72 68 65 61 60 55 51 47 43 40 37 37 38 38 39 43 43
20 26 29 39 46 49 58 62 71 76 85 100 110 116 123 116 110 110 105 102 97 94 89 84 79 77 75 73 69 68 63 60 56 51 49 45 41 37 38 40 41 40 42 43
12 15 22 30 36 46 52 61 69 75 81 92 104 113 116 112 114 116 108 101 99 95 89 86 82 78 75 74 71 70 69 62 56 52 52 47 45 43 42 42 44 43 43 44
9 11 14 24 35 41 45 57 67 73 80 91 101 106 110 116 118 117 113 105 101 94 92 88 84 81 77 76 74 73 69 62 60 57 56 53 51 49 46 45 44 44 42 42
17 13 13 19 25 31 40 51 59 69 79 87 98 103 110 117 117 117 114 109 101 93 94 90 86 83 81 80 77 75 69 65 63 60 58 56 55 51 48 46 46 44 42 44
Wind_Direction
239 236 234 232 230 232 232 234 238 235 232 220 211 199 181 227 218 219 223 223 236 277 318 330 259 350 26 150 180 187 187 190 185 171 166 165 157 150 132 112 95 88 89 97
236 237 237 234 231 231 230 232 234 235 232 225 211 211 211 216 216 215 221 221 227 265 303 332 213 339 25 103 187 191 192 195 196 181 173 172 172 172 159 134 104 89 82 92
237 234 234 235 234 231 228 229 231 231 230 227 216 212 213 214 215 218 220 220 226 252 283 305 224 228 269 168 187 188 190 198 205 198 193 184 180 182 181 160 122 99 83 82
235 234 233 232 233 233 228 229 230 229 229 231 226 218 214 213 216 219 224 225 224 238 261 277 238 209 239 218 178 187 190 202 204 202 199 199 187 189 188 187 160 122 100 85
235 234 234 231 230 231 231 228 228 229 229 231 228 224 219 218 215 220 227 232 230 234 241 259 232 203 189 196 183 187 187 200 202 199 197 194 188 193 193 191 188 151 120 100
237 234 233 231 231 228 230 230 228 227 228 229 231 227 224 221 220 220 225 230 232 235 232 242 230 215 190 211 199 191 177 185 197 187 189 190 191 196 198 198 199 183 166 117
238 236 232 231 230 230 229 229 228 226 228 227 230 231 223 222 223 223 228 230 233 238 230 230 235 227 218 213 218 179 192 176 192 193 194 193 195 196 202 207 213 206 206 222
238 237 234 232 229 229 229 229 226 226 226 225 228 230 225 222 223 223 225 230 231 231 229 225 223 225 217 214 215 196 175 196 186 200 200 199 197 202 208 213 221 223 223 253
239 236 234 233 230 229 228 230 228 225 225 221 225 226 225 226 222 225 224 226 226 221 224 224 221 221 222 218 215 217 202 179 198 199 209 206 202 206 214 219 222 232 234 252
239 236 236 231 230 227 227 226 228 227 223 220 223 225 226 226 223 222 225 226 226 222 221 222 222 221 220 220 224 220 215 203 188 197 209 215 211 211 215 222 228 232 240 254
236 232 234 230 228 226 227 225 225 227 224 219 222 223 225 226 225 221 224 225 223 221 222 218 216 222 219 219 220 225 211 217 198 192 200 211 217 218 218 221 226 232 239 252
237 232 230 227 225 225 222 223 222 222 222 222 220 222 220 222 221 222 221 223 223 223 225 225 221 219 219 215 214 222 216 215 217 204 193 206 210 217 218 223 229 236 242 249
233 231 229 225 222 223 222 221 224 223 221 221 218 221 222 221 219 225 223 222 220 222 223 224 222 219 222 220 212 214 217 224 225 220 212 199 206 218 219 221 225 234 241 245
235 228 228 225 221 219 218 216 217 219 215 219 219 217 220 217 217 222 224 220 220 221 224 223 221 218 220 224 216 210 215 218 222 224 230 222 206 212 218 219 223 227 234 237
232 229 228 225 221 219 219 221 217 219 215 217 214 217 219 215 211 218 221 219 218 220 224 223 220 218 219 222 221 213 211 216 221 221 231 230 228 221 221 225 226 231 234 236
234 230 227 226 225 219 218 218 216 217 218 215 216 219 218 216 215 221 219 219 218 217 221 219 219 218 218 221 223 216 211 211 217 223 232 236 238 238 229 228 231 235 237 241
232 230 229 225 225 219 216 218 218 215 215 215 212 214 215 216 216 217 220 219 216 215 216 216 216 218 217 220 222 220 215 212 214 218 230 238 246 248 243 233 228 234 238 243
228 228 229 229 227 222 214 218 218 214 213 213 208 213 212 214 210 216 218 215 214 218 217 216 215 216 216 219 220 222 219 216 216 220 225 232 237 244 246 241 231 230 234 238
227 226 227 228 231 224 215 217 217 215 212 212 211 212 213 212 211 213 213 212 212 214 216 216 216 216 215 217 219 220 220 220 221 223 226 229 231 237 240 240 238 236 237 239
226 226 224 225 227 223 222 218 215 214 212 212 210 210 210 212 211 211 214 211 209 213 214 214 214 216 217 218 220 219 219 220 223 226 228 231 230 239 239 241 242 243 247 248
223 226 226 226 223 223 223 213 212 215 211 211 210 209 208 209 206 212 213 209 211 212 213 213 214 214 217 219 220 220 220 221 224 229 230 234 231 236 239 241 244 245 247 249
221 216 218 218 221 223 218 208 212 211 210 211 208 207 207 207 206 209 210 210 211 211 212 213 213 214 218 220 221 222 221 224 226 229 231 234 233 234 237 241 244 246 244 246
217 214 211 214 216 213 211 208 204 204 207 210 206 205 205 204 203 210 211 208 208 210 210 214 214 214 218 220 221 225 226 226 228 228 232 233 236 236 236 240 243 243 245 246
203 216 212 208 207 210 209 203 202 198 200 207 204 205 202 200 201 207 212 210 208 210 208 211 215 216 217 222 222 224 227 227 229 228 231 233 231 233 235 238 243 244 246 247
122 157 185 196 201 205 206 203 201 198 195 201 201 202 199 199 202 204 211 211 210 207 208 210 214 217 218 221 222 225 227 227 230 230 231 233 234 234 234 238 243 247 250 251
122 137 162 182 192 193 196 200 198 195 196 197 196 197 196 198 202 204 209 212 211 207 207 211 213 217 219 220 223 226 226 228 229 232 234 237 237 236 236 239 243 246 249 251
Height
10887 10896 10901 10900 10910 10917 10928 10932 10935 10943 10951 10959 10965 10972 10976 10981 10978 10979 10980 10981 10981 10982 10982 10980 10980 10980 10978 10978 10979 10983 10986 10989 10993 10997 11000 11002 11005 11007 11008 11009 11008 11008 11008 11008
10873 10882 10881 10888 10899 10907 10917 10922 10926 10934 10942 10950 10958 10964 10968 10972 10974 10975 10976 10978 10979 10980 10981 10980 10979 10980 10980 10980 10981 10983 10986 10989 10992 10996 10999 11002 11006 11009 11010 11011 11011 11011 11010 11010
10855 10860 10865 10876 10885 10893 10904 10909 10912 10923 10931 10939 10948 10955 10961 10966 10970 10971 10972 10974 10977 10978 10979 10978 10978 10979 10980 10980 10980 10982 10985 10988 10991 10995 10998 11002 11006 11009 11011 11013 11013 11013 11012 11013
10835 10839 10849 10859 10870 10876 10888 10893 10899 10910 10921 10928 10935 10945 10952 10959 10963 10965 10967 10969 10973 10975 10976 10977 10977 10978 10979 10980 10979 10980 10983 10985 10989 10993 10998 11002 11006 11008 11011 11013 11014 11015 11015 11015
10815 10821 10828 10842 10851 10857 10869 10876 10887 10897 10908 10914 10926 10937 10946 10949 10956 10960 10961 10964 10968 10971 10973 10976 10976 10977 10978 10980 10979 10980 10981 10984 10987 10992 10997 11000 11003 11007 11010 11013 11015 11016 11017 11017
10786 10797 10807 10824 10827 10841 10844 10859 10871 10883 10892 10902 10914 10925 10934 10941 10946 10949 10954 10957 10962 10966 10969 10973 10975 10976 10978 10980 10979 10979 10979 10982 10987 10991 10994 10997 11001 11006 11009 11012 11014 11016 11017 11018
10755 10772 10786 10795 10809 10818 10829 10838 10853 10864 10875 10900 10900 10909 10924 10929 10934 10941 10946 10950 10956 10962 10966 10969 10971 10974 10976 10978 10980 10979 10979 10979 10985 10989 10992 10996 11000 11004 11007 11010 11013 11015 11016 11018
10733 10745 10754 10771 10789 10800 10809 10815 10830 10849 10863 10883 10885 10897 10912 10916 10923 10930 10936 10942 10949 10956 10960 10963 10966 10970 10972 10975 10978 10978 10978 10980 10981 10986 10990 10994 10998 11002 11005 11008 11011 11013 11015 11017
10699 10715 10727 10750 10765 10770 10794 10787 10819 10825 10837 10857 10871 10877 10888 10899 10912 10920 10927 10933 10941 10948 10952 10955 10960 10965 10969 10972 10974 10977 10979 10978 10981 10983 10988 10992 10996 10999 11003 11007 11010 11012 11014 11016
10665 10689 10693 10719 10726 10749 10754 10779 10789 10798 10819 10847 10850 10864 10875 10884 10898 10907 10914 10924 10933 10938 10942 10948 10954 10959 10963 10967 10970 10975 10977 10977 10978 10982 10985 10989 10994 10997 11000 11004 11007 11010 11012 11014
10629 10654 10663 10681 10706 10723 10727 10751 10757 10780 10797 10822 10837 10849 10859 10869 10881 10894 10901 10911 10920 10926 10933 10938 10944 10950 10957 10962 10965 10970 10973 10976 10976 10976 10980 10985 10989 10993 10997 11000 11003 11006 11009 11012
10597 10620 10629 10655 10669 10676 10693 10709 10717 10747 10778 10803 10815 10821 10833 10849 10865 10874 10886 10898 10908 10915 10923 10929 10935 10942 10950 10953 10959 10964 10969 10971 10973 10974 10974 10979 10984 10990 10993 10996 10999 11002 11005 11008
10570 10589 10596 10614 10633 10648 10671 10698 10716 10736 10757 10768 10790 10811 10821 10838 10851 10859 10870 10883 10894 10903 10911 10920 10928 10936 10942 10946 10951 10957 10962 10966 10970 10973 10974 10974 10979 10985 10988 10991 10994 10997 11000 11004
10551 10558 10568 10585 10587 10603 10629 10648 10662 10690 10722 10750 10772 10786 10796 10822 10839 10844 10852 10868 10881 10891 10899 10910 10920 10928 10933 10939 10944 10950 10955 10961 10965 10969 10972 10974 10974 10977 10982 10987 10990 10992 10995 10999
10524 10534 10543 10552 10567 10592 10613 10628 10665 10677 10703 10716 10745 10757 10779 10801 10811 10813 10824 10849 10864 10879 10891 10903 10913 10917 10924 10931 10937 10942 10948 10953 10958 10962 10966 10968 10971 10974 10977 10982 10986 10988 10990 10993
10501 10512 10520 10532 10542 10569 10588 10605 10632 10656 10681 10707 10732 10752 10771 10775 10791 10805 10820 10837 10855 10872 10882 10891 10897 10906 10916 10923 10929 10935 10940 10945 10950 10955 10959 10964 10969 10972 10973 10975 10980 10983 10985 10988
10479 10490 10499 10512 10517 10538 10556 10583 10602 10627 10648 10674 10705 10734 10737 10763 10780 10793 10806 10832 10845 10854 10865 10877 10888 10897 10906 10913 10921 10927 10931 10937 10943 10946 10952 10956 10961 10965 10969 10970 10973 10976 10979 10983
10462 10468 10477 10490 10493 10515 10557 10558 10571 10593 10619 10649 10674 10687 10723 10736 10759 10772 10789 10810 10828 10841 10854 10865 10875 10884 10893 10902 10909 10917 10923 10928 10932 10938 10943 10948 10953 10956 10960 10964 10966 10968 10972 10975
10442 10450 10459 10468 10481 10509 10523 10527 10546 10586 10614 10638 10670 10692 10706 10720 10740 10752 10771 10793 10810 10824 10839 10853 10864 10873 10882 10889 10896 10905 10913 10920 10924 10929 10934 10939 10943 10947 10952 10955 10957 10960 10964 10966
10430 10437 10445 10455 10473 10489 10497 10502 10537 10559 10591 10607 10631 10653 10677 10700 10717 10741 10740 10773 10796 10810 10824 10839 10852 10863 10870 10876 10884 10895 10902 10909 10914 10918 10923 10929 10935 10940 10943 10946 10949 10952 10956 10957
10423 10430 10437 10443 10456 10462 10475 10499 10529 10537 10561 10582 10610 10633 10646 10675 10704 10695 10731 10769 10783 10797 10810 10824 10836 10848 10855 10863 10873 10883 10892 10899 10901 10910 10918 10922 10926 10929 10933 10938 10941 10944 10946 10949
10412 10418 10423 10432 10437 10451 10462 10487 10494 10519 10542 10558 10589 10610 10635 10645 10672 10710 10730 10748 10763 10780 10796 10809 10824 10834 10841 10852 10864 10872 10881 10884 10895 10902 10908 10913 10916 10920 10926 10929 10932 10935 10937 10939
10408 10410 10416 10421 10428 10437 10446 10468 10484 10502 10523 10538 10564 10586 10607 10647 10684 10696 10703 10726 10749 10765 10782 10796 10810 10822 10833 10844 10855 10862 10871 10879 10886 10892 10897 10903 10908 10912 10916 10920 10922 10924 10926 10929
10408 10412 10416 10419 10425 10432 10441 10453 10468 10486 10507 10525 10550 10570 10608 10643 10659 10671 10688 10712 10733 10751 10771 10785 10795 10808 10821 10830 10841 10850 10856 10868 10876 10882 10886 10892 10897 10901 10905 10908 10911 10913 10916 10919
10407 10408 10412 10416 10420 10427 10439 10449 10460 10476 10491 10507 10536 10567 10600 10619 10635 10656 10669 10691 10715 10740 10757 10772 10784 10796 10807 10816 10827 10836 10846 10857 10863 10870 10875 10880 10885 10890 10894 10898 10901 10904 10907 10911
10406 10409 10412 10416 10422 10428 10436 10445 10458 10470 10483 10503 10526 10556 10584 10604 10624 10643 10660 10675 10700 10727 10743 10757 10770 10781 10792 10802 10813 10823 10836 10846 10852 10859 10864 10868 10873 10878 10883 10888 10890 10894 10898 10900